Location: Goudie Road
(49.9333°N, 119.0750°W)
Time: 17:47:25
(UTC-07:00)

Daily predictions for brighter satellites

Satellite Brightness Start Highest point End
(mag) Time Altitude Azimuth Time Altitude Azimuth Time Altitude Azimuth
SL-16 R/B 3.8 18:14:59 10° N 18:18:36 17° NNE 18:22:13 10° ENE
Cosmos 1452 Rocket 3.6 18:13:35 10° NNW 18:18:53 87° ENE 18:24:09 10° SSE
NOSS 0 Rocket 4.5 18:13:41 10° NNW 18:19:26 38° NE 18:25:08 10° ESE
Gbstr 26 Del rocket 3.7 18:16:31 10° WNW 18:21:05 71° SSW 18:26:46 10° ESE
SMAP 3.2 18:16:42 10° SSE 18:21:22 85° WSW 18:26:04 10° NNW
SL-08 R/B 4.5 18:16:37 10° S 18:22:40 65° E 18:28:43 10° NNE
Sich 1 4.3 18:20:59 10° NNE 18:24:15 20° ENE 18:27:33 10° ESE
BREEZE-M DEB (TANK) 3.7 18:20:55 10° W 18:24:18 65° SSW 18:35:39 10° ESE
Cosmos 1400 Rocket 3.0 18:21:22 10° NNW 18:25:24 77° W 18:29:22 10° S
CZ-2C R/B 4.2 18:21:40 10° SSW 18:25:53 35° W 18:30:11 10° NNW
SPOT 3 Rocket 3.9 18:21:18 10° SE 18:26:15 46° ENE 18:31:14 10° N
Aureole 1 Rocket 3.6 18:21:01 10° SSW 18:26:48 75° WNW 18:31:08 10° NNE
Cosmos 2360 Rocket 2.8 18:21:22 10° NNW 18:26:58 64° WSW 18:32:33 10° SSE
ATLAS 5 CENTAUR R/B 3.8 18:26:14 10° NW 18:30:04 20° N 18:34:13 10° NE
COSMO-SKYMED 1 3.3 18:26:49 10° NNE 18:30:42 31° E 18:34:35 10° SSE
USA 234 3.8 18:24:37 10° ENE 18:30:52 49° N 18:37:08 10° WNW
Cosmos 1980 4.4 18:26:00 10° NNW 18:31:07 33° NE 18:36:11 10° ESE
Cosmos 2151 3.0 18:27:38 10° N 18:31:57 88° E 18:36:12 10° S
Cosmos 2058 2.9 18:28:42 10° N 18:32:55 89° ENE 18:37:04 10° S
Resurs 01 Rocket 3.6 18:35:44 10° ENE 18:36:24 10° NE 18:37:05 10° NE
Cosmos 2082 Rocket 4.5 18:33:31 10° WNW 18:37:24 18° NW 18:41:19 10° N
Cosmos 1805 Rocket 4.0 18:36:40 10° N 18:40:48 38° ENE 18:44:56 10° SE
Cosmos 2098 Rocket 4.3 18:36:29 10° SSE 18:41:03 34° E 18:46:38 10° NNE
COSMOS 2428 2.7 18:35:41 10° NNW 18:41:25 83° ENE 18:47:07 10° SSE
CZ-4C R/B 3.0 18:37:47 10° S 18:42:21 30° ESE 18:47:28 10° NE
Cosmos 2333 Rocket 2.4 18:38:33 10° NNW 18:44:12 52° NE 18:49:48 10° SE
Cosmos-2242 4.4 18:41:02 10° SW 18:45:03 41° WNW 18:49:07 10° N
FENGYUN 3A 3.9 18:40:31 10° SE 18:45:41 48° ENE 18:50:54 10° N
Cosmos 44 Rocket 3.8 18:41:50 10° S 18:46:08 37° ESE 18:50:28 10° NE
GRACE-2 3.8 18:45:58 10° SSE 18:48:27 49° E 18:50:57 10° N
Cosmos 2366 rocket 4.2 18:42:31 10° SSW 18:48:44 80° W 18:54:56 10° N
Cosmos 1833 4.2 18:43:33 10° SSW 18:49:14 89° ESE 18:54:54 10° NNE
ERS-2 3.0 18:45:42 10° S 18:49:19 56° WSW 18:53:00 10° NNW
Cosmos 2219 3.8 18:44:28 10° S 18:49:40 36° ESE 18:54:52 10° NE
Cosmos 1666 Rocket 4.2 18:46:15 10° N 18:50:11 32° ENE 18:54:04 10° SE
Cosmos 158 Rocket 4.1 18:47:14 10° S 18:52:10 52° ESE 18:57:16 10° NNE
MOS 1 4.3 18:47:37 10° SSE 18:53:18 88° ENE 18:59:03 10° NNW
GRACE-1 3.6 18:51:39 10° S 18:54:13 65° E 18:56:47 10° N
Cosmos 1633 Rocket 3.8 18:50:49 10° N 18:54:46 30° ENE 18:58:41 10° SE
Cosmos 1726 2.8 18:52:56 10° SSE 18:56:12 31° E 18:59:29 10° NNE
EO 1 Del DPAF 3.2 18:52:26 10° NNE 18:56:17 63° ESE 19:00:05 10° S
YAOGAN 1 3.1 18:52:08 10° S 18:56:26 65° WSW 19:00:46 10° NNW
Cosmos 2297 Rocket 3.8 18:53:54 10° SE 18:56:00 13° ESE 18:56:00 13° ESE
APEX 2.9 18:55:08 10° S 18:57:55 39° ESE 18:59:37 18° NE
Cosmos 1048 Rocket 4.1 18:53:28 10° S 18:58:23 49° ESE 19:03:19 10° NNE
CZ-4 R/B 2.9 18:55:17 10° S 18:59:16 42° W 19:03:13 10° NNW
Landsat 4 4.0 18:55:59 10° N 18:59:43 69° WNW 19:03:24 10° SSW
CZ-2C R/B 4.0 18:58:35 10° N 19:03:06 70° WNW 19:07:31 10° SSW
Envisat 4.3 19:05:02 18° E 19:06:32 20° ENE 19:10:09 10° NNE
Meteor 1-28 Rocket 3.9 19:05:58 10° N 19:09:43 57° WNW 19:13:24 10° SSW
Cosmos 2219 Rocket 2.2 19:07:58 10° NNW 19:13:37 90° SW 19:19:14 10° SSE
Cosmos 2084 3.3 19:10:06 10° NW 19:13:53 76° SW 19:17:29 12° SE
Cosmos 1315 Rocket 4.1 19:10:07 10° NNW 19:14:01 45° W 19:17:56 10° SSW
NOAA 12 4.1 19:09:35 10° SSE 19:14:55 87° ENE 19:20:17 10° NNW
Cosmos 2221 2.5 19:12:44 10° S 19:17:05 86° E 19:21:30 10° N
Cosmos 1000 Rocket 4.5 19:11:15 10° N 19:17:31 90° E 19:23:42 10° S
SKYMED 2 3.5 19:14:35 10° NNE 19:18:58 90° ENE 19:23:19 10° SSW
FengYun 1-2 T 4.3 19:15:00 10° SE 19:20:20 57° ENE 19:25:43 10° N
ALOS 2.3 19:16:31 10° SSE 19:21:11 88° WSW 19:25:54 10° NNW
HJ-1C 4.1 19:20:51 32° E 19:21:13 33° ENE 19:24:21 10° N
Thor Agena Rocket 3.9 19:16:53 10° NNE 19:21:42 40° E 19:26:25 10° SSE
Cosmos 1934 Rocket 4.1 19:16:17 10° SSE 19:22:25 53° E 19:28:35 10° NNE
Cosmos 1821 Rocket 3.9 19:18:13 10° S 19:24:21 70° E 19:30:38 10° NNE
Cosmos 1331 Rocket 3.9 19:22:26 10° NNW 19:27:42 71° ENE 19:32:52 10° SSE
Cosmos 2239 Rocket 4.4 19:23:33 10° S 19:29:39 75° E 19:35:51 10° NNE
Cosmos 1908 4.4 19:33:10 10° SSW 19:36:55 45° WNW 19:40:42 10° N
SJ-6B 2.7 19:37:15 35° SE 19:38:32 57° ENE 19:42:13 10° N
Lacrosse 5 rocket 2.6 19:35:13 10° WNW 19:39:09 32° N 19:40:29 26° NE
Aureole 2 Rocket 4.0 19:35:51 10° NW 19:39:35 43° WSW 19:43:25 10° S
BREEZE-M DEB (TANK) 3.4 19:34:06 10° W 19:44:13 60° S 19:45:54 35° SE
H-2A R/B 2.7 19:42:30 11° SSE 19:46:13 89° ENE 19:50:11 10° NNW
BREEZE-M DEB (TANK) 3.0 19:45:31 10° SW 19:46:34 25° SSW 19:46:34 25° SSW
Abrixas rocket 2.7 19:45:13 10° W 19:48:24 48° SSW 19:48:35 47° S
In-Cosmos 22 Rocket 4.2 19:42:51 10° NNW 19:48:38 88° E 19:54:28 10° SSE
Cosmos 1470 Rocket 3.6 19:44:21 10° N 19:48:46 54° ENE 19:49:38 46° ESE
Cosmos 44 3.2 19:45:32 10° SW 19:49:52 70° NW 19:52:16 26° NNE
Cosmos 2123 Rocket 4.0 19:44:09 10° N 19:50:26 88° W 19:56:43 10° S
Cosmos 2237 Rocket 2.2 19:45:21 10° NNW 19:51:05 85° WSW 19:55:32 17° SSE
SL-8 R/B 3.7 19:48:41 10° W 19:53:31 75° S 19:54:42 50° ESE
Cosmos 1269 Rocket 4.2 19:48:38 10° SSW 19:53:54 72° WNW 19:59:13 10° NNE
Cosmos 1302 Rocket 3.9 19:51:53 10° NNW 19:57:08 73° ENE 19:59:12 37° SE
Cosmos 967 Rocket 4.5 19:51:33 10° NW 19:58:03 88° SW 20:01:50 27° SE
Cosmos 1605 Rocket 3.8 19:52:50 10° S 19:58:51 67° E 20:04:55 10° NNE
Cosmos 1300 2.8 19:56:45 10° SSW 20:00:34 73° WNW 20:04:24 10° N
MOS 1-B Rocket 3.9 19:56:56 23° SSE 20:00:37 69° ENE 20:07:04 10° NNW
BREEZE M DEB (TANK) 3.0 19:58:38 10° W 20:02:08 34° SW 20:02:08 34° SW
Sich 1 3.9 19:58:01 10° NNW 20:02:15 50° W 20:06:31 10° S
Cosmos 1892 3.6 19:58:36 10° N 20:01:03 36° NNE 20:01:03 36° NNE
Cosmos 2227 Rocket 2.3 19:57:01 10° S 20:02:27 49° ESE 20:03:07 47° E
SL-16 R/B 2.2 19:58:21 10° NNW 20:04:00 59° NE 20:05:09 49° E
FREGAT/IRIS 4.0 20:05:35 34° SW 20:06:11 38° W 20:09:01 10° NNW
COSMO-SKYMED 1 4.3 20:02:58 10° N 20:06:52 33° WNW 20:10:45 10° SW
Spot 2 Rocket 3.5 20:09:46 56° ENE 20:09:51 56° ENE 20:14:50 10° N
Cosmos 494 Rocket 3.8 20:06:24 10° SSW 20:11:29 73° ESE 20:13:12 42° NE
Resurs 01 Rocket 1.8 20:12:41 56° NNE 20:12:41 56° NNE 20:16:25 10° N
USA 234 3.5 20:11:06 39° ENE 20:13:20 56° NNE 20:19:44 10° WNW
CZ-2D R/B 3.7 20:14:21 53° N 20:14:21 53° N 20:17:25 10° NNW
Resurs 1-3 4.0 20:15:52 50° NNE 20:15:52 50° NNE 20:19:19 10° N
Cosmos 1980 4.3 20:09:58 10° NW 20:15:29 54° WSW 20:19:50 16° S
ATLAS 5 CENTAUR R/B 3.4 20:11:48 10° NW 20:16:31 28° NNE 20:17:10 27° NE
Meteor 2-17 Rocket 4.3 20:16:05 10° S 20:22:03 62° E 20:28:05 10° NNE
Meteor 2-3 Rocket 3.7 20:17:06 10° NNW 20:22:55 89° W 20:25:11 39° S
USA 32 4.0 20:17:57 10° N 20:23:13 80° W 20:25:56 29° S
Cosmos 44 Rocket 4.3 20:23:09 10° WSW 20:27:38 42° NW 20:29:24 30° N
Cosmos 1447 Rocket 4.5 20:21:40 10° N 20:28:02 84° W 20:32:06 24° S
Cosmos 2333 Rocket 3.9 20:23:12 10° NW 20:28:14 32° WSW 20:33:15 10° SSW
CZ-4C R/B 2.6 20:25:01 10° WSW 20:30:24 63° NW 20:33:20 31° NNE
H-2A R/B 4.2 20:35:14 14° NNE 20:35:14 14° NNE 20:36:23 10° NNE
Cosmos 2219 4.2 20:28:12 10° SW 20:33:43 46° NW 20:39:16 10° NNE
Cosmos 1933 Rocket 4.0 20:31:44 10° NNW 20:35:41 58° WNW 20:35:41 58° WNW
Cosmos 2297 Rocket 2.7 20:33:57 10° SSW 20:37:56 47° S 20:37:56 47° S
Envisat 3.1 20:45:15 73° WNW 20:45:15 73° WNW 20:50:08 10° NNW
Cosmos 2251 Rocket 4.0 20:42:45 10° SSW 20:46:42 51° SW 20:46:42 51° SW
Cosmos 2082 4.3 20:44:28 10° SSW 20:48:19 45° SSW 20:48:19 45° SSW
Lacrosse 5 rocket 3.9 21:14:48 10° NW 21:16:09 19° NW 21:16:09 19° NW
Cosmos 2227 Rocket 3.8 21:41:30 10° WSW 21:45:03 30° W 21:45:03 30° W
SL-16 R/B 4.0 21:43:02 10° NW 21:47:03 27° W 21:47:03 27° W
Resurs 01 Rocket 4.5 21:50:16 15° WNW 21:50:16 15° WNW 21:51:45 10° NW
USA 234 4.1 21:58:27 45° WNW 21:58:27 45° WNW 22:02:49 10° WNW
ATLAS 5 CENTAUR R/B 4.1 21:56:21 10° NW 21:58:43 26° NW 21:58:43 26° NW
CZ-4C R/B 4.3 22:15:12 10° WNW 22:18:32 25° NW 22:18:32 25° NW
